QTR1015 YSSY-VHHH

Flight info

Callsign QTR1015
Flight time N/A
Altitude 32000
Route RIC H530 OPAXA/N0472F340 H530 SURVO/N0474F360 R340 AMN/N0463F380 A461 ZAM A583 KALAH/N0456F400 A583 SABNO V542 CYBER/N0458F390 V542 BETTY
Aircraft E190/M-SDE1E2E3FGHIJ3J4J7P2RWXY/LB1D1G1

Departure

Time 2026-05-08 03:40
Airport Sydney Kingsford Smith International Airport (YSSY)

Arrival

Time N/A
Airport Hong Kong International Airport (VHHH)
Time Latitude Longitude Altitude Speed Heading
2026-05-08 03:23 -33.93512 151.18962 28 ft 0 kts 345°
2026-05-08 03:34 -33.93512 151.18944 27 ft 6 kts 239°
2026-05-08 03:35 -33.93557 151.18947 27 ft 7 kts 162°
2026-05-08 03:35 -33.93604 151.18961 27 ft 7 kts 171°
2026-05-08 03:35 -33.93648 151.18957 27 ft 6 kts 182°
2026-05-08 03:35 -33.93661 151.18956 28 ft 0 kts 184°
2026-05-08 03:38 -33.93665 151.18956 28 ft 2 kts 183°
2026-05-08 03:38 -33.93704 151.18961 27 ft 8 kts 167°
2026-05-08 03:38 -33.93769 151.18922 27 ft 14 kts 248°
2026-05-08 03:39 -33.93843 151.18622 28 ft 65 kts 255°
2026-05-08 03:39 -33.94011 151.17886 28 ft 114 kts 255°
2026-05-08 03:39 -33.94263 151.16826 31 ft 152 kts 256°
2026-05-08 03:39 -33.94530 151.15652 283 ft 158 kts 255°
2026-05-08 03:40 -33.94858 151.14375 526 ft 154 kts 255°
2026-05-08 03:40 -33.95123 151.13121 462 ft 154 kts 257°
2026-05-08 03:40 -33.95403 151.11881 496 ft 155 kts 258°
2026-05-08 03:40 -33.95583 151.10612 651 ft 156 kts 263°
2026-05-08 03:41 -33.95647 151.09348 870 ft 154 kts 266°
2026-05-08 03:41 -33.95654 151.08032 1154 ft 154 kts 269°
2026-05-08 03:41 -33.95504 151.06805 1425 ft 171 kts 289°
2026-05-08 03:41 -33.94637 151.05730 1697 ft 203 kts 323°
2026-05-08 03:42 -33.93503 151.04657 2067 ft 215 kts 310°
2026-05-08 03:42 -33.92367 151.03383 2650 ft 226 kts 312°
2026-05-08 03:42 -33.91223 151.02142 3362 ft 230 kts 313°
2026-05-08 03:42 -33.90007 151.00844 3718 ft 250 kts 314°
2026-05-08 03:43 -33.88658 150.99422 4202 ft 265 kts 314°
2026-05-08 03:43 -33.87257 150.97954 4854 ft 272 kts 314°
2026-05-08 03:43 -33.85837 150.96472 5577 ft 275 kts 314°
2026-05-08 03:43 -33.84433 150.95007 6238 ft 279 kts 315°
2026-05-08 03:44 -33.82974 150.93489 6910 ft 283 kts 314°
2026-05-08 03:44 -33.81513 150.91969 7568 ft 286 kts 314°
2026-05-08 03:44 -33.79984 150.90378 8225 ft 289 kts 313°
2026-05-08 03:44 -33.78466 150.88798 8855 ft 292 kts 313°
2026-05-08 03:45 -33.76911 150.87183 9489 ft 294 kts 312°
2026-05-08 03:45 -33.75364 150.85574 10102 ft 297 kts 312°
2026-05-08 03:45 -33.73782 150.83931 10700 ft 300 kts 312°
2026-05-08 03:45 -33.72178 150.82265 11200 ft 306 kts 312°
2026-05-08 03:46 -33.70528 150.80553 11606 ft 316 kts 312°
2026-05-08 03:46 -33.68842 150.78804 12049 ft 323 kts 312°
2026-05-08 03:46 -33.67108 150.77008 12536 ft 329 kts 312°
2026-05-08 03:46 -33.65286 150.75259 13062 ft 339 kts 324°
2026-05-08 03:47 -33.63103 150.74312 13558 ft 352 kts 339°
2026-05-08 03:47 -33.60738 150.73569 14159 ft 353 kts 339°
2026-05-08 03:47 -33.58476 150.72861 14703 ft 354 kts 339°
2026-05-08 03:47 -33.56165 150.72101 15204 ft 354 kts 333°
2026-05-08 03:48 -33.54028 150.70734 15702 ft 345 kts 317°
2026-05-08 03:48 -33.52153 150.68944 16252 ft 343 kts 311°
2026-05-08 03:48 -33.50402 150.67038 16764 ft 344 kts 309°
2026-05-08 03:48 -33.48671 150.65056 17298 ft 345 kts 308°
2026-05-08 03:49 -33.46938 150.63029 17834 ft 346 kts 308°
2026-05-08 03:49 -33.45222 150.61009 18321 ft 349 kts 308°
2026-05-08 03:49 -33.43562 150.59052 18787 ft 352 kts 308°
2026-05-08 03:49 -33.41779 150.56947 19281 ft 355 kts 308°
2026-05-08 03:50 -33.40013 150.54884 19792 ft 358 kts 312°
2026-05-08 03:50 -33.38134 150.53053 20223 ft 359 kts 307°
2026-05-08 03:50 -33.36430 150.50885 20753 ft 358 kts 307°
2026-05-08 03:50 -33.34671 150.48763 21221 ft 362 kts 308°
2026-05-08 03:51 -33.32857 150.46640 21676 ft 365 kts 308°
2026-05-08 03:51 -33.31030 150.44524 22138 ft 367 kts 309°
2026-05-08 03:51 -33.29201 150.42418 22629 ft 368 kts 309°
2026-05-08 03:51 -33.27357 150.40297 23097 ft 370 kts 309°
2026-05-08 03:52 -33.25488 150.38148 23543 ft 372 kts 309°
2026-05-08 03:52 -33.23605 150.35986 23947 ft 375 kts 309°
2026-05-08 03:52 -33.21708 150.33812 24373 ft 377 kts 309°
2026-05-08 03:52 -33.19819 150.31645 24753 ft 380 kts 310°
2026-05-08 03:53 -33.17908 150.29456 25176 ft 382 kts 309°
2026-05-08 03:53 -33.15987 150.27257 25566 ft 385 kts 310°
2026-05-08 03:53 -33.14056 150.25047 25931 ft 388 kts 309°
2026-05-08 03:53 -33.12085 150.22794 26337 ft 390 kts 309°
2026-05-08 03:54 -33.10119 150.20548 26717 ft 392 kts 309°
2026-05-08 03:54 -33.08164 150.18314 27074 ft 395 kts 310°
2026-05-08 03:54 -33.06158 150.16026 27452 ft 398 kts 309°
2026-05-08 03:54 -33.04169 150.13756 27788 ft 401 kts 309°
2026-05-08 03:55 -33.02144 150.11447 28155 ft 403 kts 309°
2026-05-08 03:55 -33.00103 150.09123 28474 ft 406 kts 309°
2026-05-08 03:55 -32.98068 150.06808 28841 ft 408 kts 309°
2026-05-08 03:55 -32.95982 150.04436 29229 ft 409 kts 309°
2026-05-08 03:56 -32.93931 150.02104 29603 ft 410 kts 309°
2026-05-08 03:56 -32.91863 149.99756 29926 ft 413 kts 309°
2026-05-08 03:56 -32.89798 149.97412 30231 ft 416 kts 309°
2026-05-08 03:56 -32.87720 149.95055 30509 ft 418 kts 310°
2026-05-08 03:57 -32.85614 149.92668 30828 ft 419 kts 309°
2026-05-08 03:57 -32.83477 149.90248 31188 ft 420 kts 309°
2026-05-08 03:57 -32.81365 149.87856 31526 ft 420 kts 309°
2026-05-08 03:57 -32.79243 149.85455 31813 ft 422 kts 310°
2026-05-08 03:58 -32.77133 149.83072 32104 ft 423 kts 310°